STARLINK-1160 (45082 NORAD) Tracking and Keplerian Element Data

This shows tracking and keplerian element data for the satellite.

Feedback or suggestion? Click here.




ElementValue
Catalog45082
NameSTARLINK-1160
Epoch Orbit2453
Epoch Day186.91667824
Epoch Year2020
RAAN216.1645
Inclination52.9951
Eccentricity0.00012
Argument of Perigee99.4316
Mean Anonmoly322.5519
Mean Motion15.05559429
Decay Rate0.00035247
L11 45082U 20006AQ 20186.91667824 .00035247 00000-0 24275-2 0 9990
L22 45082 52.9951 216.1645 0001200 99.4316 322.5519 15.05559429 24538

Live tracking and technical data element details for STARLINK-1160 (NORAD 45082). STARLINK-1160 can be tracked NOW for your location showing map with azimuth and elevation plus other details from your city location.

Track the satellite on the map from your city or location and see movement details for azimuth, elevation, latitude, longitude, range, height, and movement on the map or in text.







IsCatalogInMostPopularTable: catalog: 45082, numindb: 33
Update: records affected: 1



GetName: 45082 STARLINK-1160

Hit Count: updated at: Mon, 06 Jul 2020 06:32:41 GMT